COSMOS 2251 DEB, 39553

Orbit data source: Space-Track

COSMOS 2251 DEB, 39553 is space debris in LEO originally from a launch on Wed, 16 Jun 1993 UTC launched from the Plesetsk Missile And Space Complex (PKMTR). The debris from Iridium 33, an American commercial communications satellite, has been tracked extensively since its accidental collision with the defunct Russian satellite Cosmos 2251 in 2009. This event, occurring at high speed in low Earth orbit (LEO), generated thousands of pieces of space debris, significantly increasing the risk of further collisions. The Iridium 33 debris cloud has impacted space traffic management and orbital debris mitigation strategies, making it a subject of ongoing study in space situational awareness.

Loading next visibility...
Identifier
39553, 1993-036BUK
Orbit
LEO
Country
Flag of CISCIS
Related business
Manufacturer
Unknown
Mission
Spacecraft
Bus & Motor
Unknown
Mass
Unknown
Launch date (UTC)
1993-06-16 (33 years ago)
Launch vehicle
Unknown
Launch site
Plesetsk Missile And Space Complex (PKMTR)
Object type
Payload
Rocket body
Debris
Shape & HBR
Unknown shape, 0.1 m
Radar Cross Section
Medium (>0.1 m² and <1 m²)

Expand to show TLE details & history
Last TLE update: 4 days ago

TLE from 4 days ago
0 COSMOS 2251 DEB
1 39553U 93036BUK 26171.78697905  .00001272  00000-0  72058-3 0  9991
2 39553  74.0281   0.5918 0208115  92.7119 269.7855 14.00648450782773
Epoch: 2026-06-20T18:53Z
TLE epoch observation values (Epoch: 2026-06-20T18:53:14.989Z)
Latitude
0.00003°
Longitude
168.28276°
Altitude
897.834 km
Speed
7.401 km/s
True Right ascension
00h 02m 22s
True Declination
0° 00' 00"
Sunlit
Object was in daylight at epoch
Visualization orbit readout
Latitude
Unknown
Longitude
Unknown
Altitude
Unknown
Speed
Unknown
Apparent Right ascension
Unknown
Apparent Declination
Unknown
Sunlit
N/A
Visualization observer readout
Local Sidereal Time
03:14:53
Azimuth
Unknown
Elevation
Unknown
Doppler factor
Unknown
Orbital elements
Apogee altitude
1,040.457 km
Perigee altitude
737.969 km
Semi-major axis
7,267.35 km
Eccentricity
0.02081
Inclination
74.0281°
RAAN
0.5918°
Arg. of periapsis
92.7119°
True anomaly
267.40161°
Mean anomaly
269.7855°
Eccentric anomaly
268.59345°
Mean motion
3.50331 °/min
Orbital period
102.76 mins
BSTAR
0.00072058
Loading maneuver chart data...
Computing Atmospheric mass density...

Documentation

Showing up to 5 results
|